WMT1SU LEMG-LIMC

Flight info

Callsign WMT1SU
Flight time 1h 55m
Altitude 34000
Route RIXUR M445 SOPET DCT DIKUT DCT TORDU DCT LOTOS DCT EBROX DCT PEXOT DCT RODRA DCT BCN DCT SALON DCT AGENA DCT BODEQ DCT LUMAS DCT UNANA DCT STP DCT RAPED DCT PIGOS DCT EKSID DCT NOSTA DCT NOPMU DCT EGHIN DCT ANAKI/N0440F300 P860 DEVOX
Aircraft A321/M-SDE3FGHIRWY/LB1

Departure

Time 2026-05-05 15:59
Airport Málaga-Costa del Sol Airport (LEMG)

Arrival

Time 2026-05-05 17:54
Airport Milan Malpensa International Airport (LIMC)
Time Latitude Longitude Altitude Speed Heading
2026-05-05 15:29 36.67672 -4.49486 40 ft 0 kts 41°
2026-05-05 15:49 36.67661 -4.49498 41 ft 4 kts 44°
2026-05-05 15:49 36.67643 -4.49522 40 ft 4 kts 54°
2026-05-05 15:50 36.67632 -4.49550 40 ft 4 kts 95°
2026-05-05 15:50 36.67640 -4.49574 38 ft 4 kts 127°
2026-05-05 15:50 36.67653 -4.49594 38 ft 0 kts 131°
2026-05-05 15:54 36.67653 -4.49593 42 ft 1 kts 131°
2026-05-05 15:54 36.67626 -4.49555 42 ft 9 kts 130°
2026-05-05 15:54 36.67581 -4.49492 42 ft 10 kts 131°
2026-05-05 15:54 36.67519 -4.49471 42 ft 10 kts 197°
2026-05-05 15:55 36.67451 -4.49484 41 ft 10 kts 206°
2026-05-05 15:55 36.67390 -4.49473 43 ft 10 kts 137°
2026-05-05 15:55 36.67338 -4.49400 43 ft 14 kts 131°
2026-05-05 15:55 36.67258 -4.49287 42 ft 21 kts 131°
2026-05-05 15:56 36.67150 -4.49135 41 ft 27 kts 131°
2026-05-05 15:56 36.67025 -4.48962 42 ft 27 kts 131°
2026-05-05 15:56 36.66899 -4.48784 37 ft 29 kts 131°
2026-05-05 15:56 36.66768 -4.48601 35 ft 25 kts 131°
2026-05-05 15:57 36.66681 -4.48490 34 ft 15 kts 162°
2026-05-05 15:57 36.66612 -4.48519 37 ft 0 kts 219°
2026-05-05 15:58 36.66611 -4.48520 37 ft 2 kts 221°
2026-05-05 15:58 36.66570 -4.48565 39 ft 10 kts 227°
2026-05-05 15:58 36.66582 -4.48637 40 ft 13 kts 309°
2026-05-05 15:58 36.66773 -4.48906 43 ft 75 kts 311°
2026-05-05 15:59 36.67257 -4.49583 48 ft 132 kts 312°
2026-05-05 15:59 36.67966 -4.50574 199 ft 163 kts 314°
2026-05-05 15:59 36.68676 -4.51602 994 ft 152 kts 304°
2026-05-05 15:59 36.69365 -4.52617 1540 ft 158 kts 306°
2026-05-05 16:00 36.70099 -4.53742 1787 ft 177 kts 307°
2026-05-05 16:00 36.70904 -4.55000 2084 ft 194 kts 307°
2026-05-05 16:00 36.71751 -4.56366 2483 ft 204 kts 308°
2026-05-05 16:00 36.72643 -4.57734 3158 ft 203 kts 310°
2026-05-05 16:01 36.73772 -4.58811 3605 ft 212 kts 338°
2026-05-05 16:01 36.75220 -4.59299 4136 ft 217 kts 345°
2026-05-05 16:01 36.76666 -4.59790 4792 ft 215 kts 342°
2026-05-05 16:01 36.78107 -4.60302 5401 ft 215 kts 341°
2026-05-05 16:02 36.79532 -4.60808 5981 ft 217 kts 345°
2026-05-05 16:02 36.81066 -4.60957 6428 ft 227 kts
2026-05-05 16:02 36.82588 -4.60308 6822 ft 242 kts 28°
2026-05-05 16:02 36.83949 -4.58942 7082 ft 259 kts 39°
2026-05-05 16:03 36.85318 -4.57423 7562 ft 265 kts 39°
2026-05-05 16:03 36.86697 -4.55886 8246 ft 268 kts 38°
2026-05-05 16:03 36.88098 -4.54329 8873 ft 272 kts 38°
2026-05-05 16:03 36.89526 -4.52748 9489 ft 276 kts 38°
2026-05-05 16:04 36.90974 -4.51145 10095 ft 281 kts 38°
2026-05-05 16:04 36.92447 -4.49518 10674 ft 284 kts 37°
2026-05-05 16:04 36.93942 -4.47868 11251 ft 288 kts 38°
2026-05-05 16:04 36.95452 -4.46201 11870 ft 291 kts 37°
2026-05-05 16:05 36.96929 -4.44447 12430 ft 297 kts 47°
2026-05-05 16:05 36.98058 -4.42249 12980 ft 306 kts 63°
2026-05-05 16:05 36.98717 -4.39629 13135 ft 327 kts 78°
2026-05-05 16:05 36.99166 -4.36753 13283 ft 347 kts 78°
2026-05-05 16:06 36.99649 -4.33709 13419 ft 366 kts 78°
2026-05-05 16:06 37.00166 -4.30509 13551 ft 385 kts 78°
2026-05-05 16:06 37.00703 -4.27217 13791 ft 397 kts 77°
2026-05-05 16:06 37.01259 -4.23810 14272 ft 401 kts 78°
2026-05-05 16:07 37.01818 -4.20378 14820 ft 404 kts 77°
2026-05-05 16:07 37.02380 -4.16918 15364 ft 407 kts 78°
2026-05-05 16:07 37.02948 -4.13427 15908 ft 411 kts 77°
2026-05-05 16:07 37.03521 -4.09917 16444 ft 414 kts 77°
2026-05-05 16:08 37.04097 -4.06375 16951 ft 417 kts 78°
2026-05-05 16:08 37.04673 -4.02803 17478 ft 420 kts 78°
2026-05-05 16:08 37.05250 -3.99203 18002 ft 423 kts 78°
2026-05-05 16:08 37.05830 -3.95578 18475 ft 427 kts 78°
2026-05-05 16:09 37.06415 -3.91922 18896 ft 430 kts 78°
2026-05-05 16:09 37.07003 -3.88234 19351 ft 433 kts 78°
2026-05-05 16:09 37.07597 -3.84517 19808 ft 436 kts 78°
2026-05-05 16:09 37.08191 -3.80783 20246 ft 440 kts 78°
2026-05-05 16:10 37.08787 -3.77005 20651 ft 444 kts 78°
2026-05-05 16:10 37.09384 -3.73201 21046 ft 447 kts 78°
2026-05-05 16:10 37.10013 -3.69371 21458 ft 450 kts 74°
2026-05-05 16:10 37.11028 -3.65658 21845 ft 451 kts 64°
2026-05-05 16:11 37.12523 -3.62201 22243 ft 451 kts 54°
2026-05-05 16:11 37.18827 -3.53421 23437 ft 456 kts 43°
2026-05-05 16:12 37.21017 -3.50593 23749 ft 459 kts 43°
2026-05-05 16:12 37.25498 -3.44794 24362 ft 466 kts 43°
2026-05-05 16:13 37.32326 -3.35924 25226 ft 475 kts 42°
2026-05-05 16:13 37.34627 -3.32931 25521 ft 478 kts 43°
2026-05-05 16:13 37.36940 -3.29916 25815 ft 480 kts 42°
2026-05-05 16:14 37.41607 -3.23838 26381 ft 486 kts 42°
2026-05-05 16:14 37.46335 -3.17683 26884 ft 493 kts 43°
2026-05-05 16:15 37.51120 -3.11425 27397 ft 499 kts 43°
2026-05-05 16:15 37.55919 -3.05128 27913 ft 504 kts 43°
2026-05-05 16:16 37.60826 -2.98683 28467 ft 509 kts 43°
2026-05-05 16:16 37.65714 -2.92255 29006 ft 514 kts 43°
2026-05-05 16:17 37.70703 -2.85687 29674 ft 516 kts 42°
2026-05-05 16:17 37.73156 -2.82453 29961 ft 518 kts 42°
2026-05-05 16:18 37.78133 -2.75868 30584 ft 518 kts 42°
2026-05-05 16:18 37.80615 -2.72575 30931 ft 517 kts 42°
2026-05-05 16:18 37.85567 -2.66003 31560 ft 516 kts 42°
2026-05-05 16:19 37.88038 -2.62722 31896 ft 514 kts 42°
2026-05-05 16:19 37.90505 -2.59444 32249 ft 513 kts 42°
2026-05-05 16:19 37.95422 -2.52897 32834 ft 514 kts 42°
2026-05-05 16:20 38.00352 -2.46321 33389 ft 514 kts 42°
2026-05-05 16:20 38.05269 -2.39735 33903 ft 514 kts 42°
2026-05-05 16:22 38.17477 -2.23348 34006 ft 510 kts 42°
2026-05-05 16:23 38.26706 -2.09362 33942 ft 519 kts 48°
2026-05-05 16:23 38.33393 -1.98539 33926 ft 519 kts 48°
2026-05-05 16:24 38.37823 -1.91343 33939 ft 519 kts 48°
2026-05-05 16:25 38.44515 -1.80467 33926 ft 520 kts 49°
2026-05-05 16:25 38.51192 -1.69558 33936 ft 520 kts 49°
2026-05-05 16:26 38.60004 -1.54902 33913 ft 519 kts 48°
2026-05-05 16:27 38.64486 -1.47673 33916 ft 519 kts 49°
2026-05-05 16:27 38.68921 -1.40386 33933 ft 519 kts 49°
2026-05-05 16:28 38.73371 -1.33112 33927 ft 519 kts 49°
2026-05-05 16:28 38.77819 -1.25794 33927 ft 520 kts 49°
2026-05-05 16:29 38.82247 -1.18444 33921 ft 521 kts 50°
2026-05-05 16:29 38.86661 -1.11080 33905 ft 521 kts 50°
2026-05-05 16:30 38.91059 -1.03762 33899 ft 521 kts 50°
2026-05-05 16:30 38.95481 -0.96391 33891 ft 521 kts 50°
2026-05-05 16:31 38.99894 -0.88999 33885 ft 522 kts 50°
2026-05-05 16:31 39.04313 -0.81580 33890 ft 522 kts 50°
2026-05-05 16:32 39.09199 -0.74750 33856 ft 516 kts 36°
2026-05-05 16:32 39.14737 -0.68891 33883 ft 516 kts 35°
2026-05-05 16:33 39.20291 -0.62987 33863 ft 518 kts 36°
2026-05-05 16:33 39.25787 -0.56948 33861 ft 520 kts 37°
2026-05-05 16:34 39.31196 -0.50752 33868 ft 520 kts 38°
2026-05-05 16:34 39.36602 -0.44519 33907 ft 520 kts 37°
2026-05-05 16:35 39.42030 -0.38315 33906 ft 521 kts 37°
2026-05-05 16:35 39.47477 -0.32110 33899 ft 522 kts 37°
2026-05-05 16:36 39.52922 -0.25893 33896 ft 522 kts 37°
2026-05-05 16:36 39.58374 -0.19647 33945 ft 522 kts 37°
2026-05-05 16:37 39.63793 -0.13421 33903 ft 519 kts 37°
2026-05-05 16:37 39.69155 -0.07254 33906 ft 519 kts 37°
2026-05-05 16:38 39.74552 -0.01028 33897 ft 519 kts 38°
2026-05-05 16:38 39.79948 0.05223 33885 ft 520 kts 38°
2026-05-05 16:39 39.85341 0.11485 33939 ft 519 kts 38°
2026-05-05 16:39 39.90742 0.17753 33926 ft 519 kts 38°
2026-05-05 16:40 39.96126 0.24011 33926 ft 519 kts 38°
2026-05-05 16:40 40.01498 0.30285 33928 ft 519 kts 38°
2026-05-05 16:41 40.06871 0.36577 33902 ft 517 kts 38°
2026-05-05 16:41 40.12230 0.42862 33893 ft 519 kts 38°
2026-05-05 16:42 40.17609 0.49177 33892 ft 521 kts 38°
2026-05-05 16:42 40.23004 0.55528 33903 ft 523 kts 38°
2026-05-05 16:43 40.28186 0.62154 33914 ft 526 kts 44°
2026-05-05 16:43 40.33150 0.69195 33910 ft 527 kts 45°
2026-05-05 16:44 40.38120 0.76265 33920 ft 527 kts 45°
2026-05-05 16:44 40.42293 0.82196 33890 ft 529 kts 45°
2026-05-05 16:45 40.47253 0.89267 33943 ft 530 kts 45°
2026-05-05 16:45 40.52290 0.96455 33932 ft 531 kts 46°
2026-05-05 16:46 40.57286 1.03609 33931 ft 531 kts 46°
2026-05-05 16:46 40.62245 1.10732 33914 ft 531 kts 46°
2026-05-05 16:47 40.67229 1.17912 33886 ft 532 kts 46°
2026-05-05 16:47 40.72223 1.25116 33884 ft 533 kts 46°
2026-05-05 16:48 40.77228 1.32348 33902 ft 534 kts 46°
2026-05-05 16:48 40.82232 1.39596 33908 ft 534 kts 46°
2026-05-05 16:49 40.87230 1.46861 33908 ft 534 kts 46°
2026-05-05 16:49 40.92229 1.54130 33874 ft 534 kts 46°
2026-05-05 16:50 40.97197 1.61385 33872 ft 532 kts 46°
2026-05-05 16:50 41.02172 1.68669 33872 ft 534 kts 46°
2026-05-05 16:51 41.07142 1.75990 33878 ft 535 kts 47°
2026-05-05 16:51 41.12110 1.83355 33927 ft 536 kts 47°
2026-05-05 16:52 41.17121 1.90677 33935 ft 535 kts 46°
2026-05-05 16:52 41.22118 1.98017 33905 ft 535 kts 47°
2026-05-05 16:53 41.27052 2.05421 33911 ft 536 kts 52°
2026-05-05 16:53 41.30841 2.13905 33918 ft 533 kts 70°
2026-05-05 16:54 41.32931 2.23216 33967 ft 528 kts 81°
2026-05-05 16:54 41.34623 2.32778 33898 ft 527 kts 81°
2026-05-05 16:55 41.36298 2.42263 33903 ft 527 kts 81°
2026-05-05 16:55 41.37953 2.51696 33900 ft 526 kts 81°
2026-05-05 16:56 41.39613 2.61187 33895 ft 527 kts 81°
2026-05-05 16:56 41.41262 2.70698 33854 ft 527 kts 82°
2026-05-05 16:57 41.42898 2.80207 33887 ft 526 kts 82°
2026-05-05 16:57 41.44527 2.89717 33900 ft 526 kts 82°
2026-05-05 16:58 41.46150 2.99227 33903 ft 526 kts 82°
2026-05-05 16:58 41.47770 3.08732 33867 ft 525 kts 83°
2026-05-05 16:59 41.49376 3.18231 33893 ft 524 kts 83°
2026-05-05 16:59 41.50969 3.27714 33905 ft 524 kts 83°
2026-05-05 17:00 41.52549 3.37186 33881 ft 521 kts 83°
2026-05-05 17:00 41.54111 3.46608 33875 ft 520 kts 83°
2026-05-05 17:01 41.55674 3.56055 33878 ft 521 kts 83°
2026-05-05 17:01 41.57220 3.65497 33881 ft 521 kts 83°
2026-05-05 17:02 41.58763 3.74957 33885 ft 521 kts 83°
2026-05-05 17:02 41.60297 3.84419 33856 ft 521 kts 83°
2026-05-05 17:03 41.61825 3.93891 33874 ft 522 kts 83°
2026-05-05 17:03 41.63359 4.03366 33888 ft 522 kts 83°
2026-05-05 17:04 41.64874 4.12793 33898 ft 522 kts 83°
2026-05-05 17:04 41.66380 4.22276 33865 ft 522 kts 83°
2026-05-05 17:05 41.67877 4.31779 33888 ft 522 kts 83°
2026-05-05 17:05 41.69367 4.41284 33934 ft 522 kts 84°
2026-05-05 17:06 41.70860 4.50796 33920 ft 522 kts 84°
2026-05-05 17:06 41.72505 4.60270 33882 ft 527 kts 75°
2026-05-05 17:07 41.75795 4.69079 33887 ft 533 kts 55°
2026-05-05 17:07 41.80758 4.76442 33891 ft 533 kts 43°
2026-05-05 17:08 41.86054 4.83428 33898 ft 534 kts 44°
2026-05-05 17:08 41.91335 4.90447 33913 ft 535 kts 44°
2026-05-05 17:09 41.96623 4.97489 33880 ft 535 kts 44°
2026-05-05 17:09 42.01907 5.04524 33910 ft 534 kts 44°
2026-05-05 17:10 42.07190 5.11555 33912 ft 534 kts 44°
2026-05-05 17:10 42.12455 5.18608 33902 ft 534 kts 44°
2026-05-05 17:11 42.17686 5.25632 33901 ft 535 kts 44°
2026-05-05 17:11 42.22958 5.32716 33905 ft 535 kts 44°
2026-05-05 17:12 42.28230 5.39823 33937 ft 535 kts 44°
2026-05-05 17:12 42.33488 5.46934 33937 ft 535 kts 44°
2026-05-05 17:13 42.38747 5.54061 33921 ft 535 kts 44°
2026-05-05 17:13 42.43998 5.61194 33922 ft 535 kts 45°
2026-05-05 17:14 42.49243 5.68337 33948 ft 535 kts 45°
2026-05-05 17:14 42.54491 5.75493 33918 ft 535 kts 45°
2026-05-05 17:15 42.59700 5.82620 33930 ft 535 kts 45°
2026-05-05 17:15 42.64930 5.89800 33938 ft 534 kts 45°
2026-05-05 17:16 42.70153 5.96979 33934 ft 534 kts 45°
2026-05-05 17:16 42.75365 6.04181 33935 ft 534 kts 45°
2026-05-05 17:17 42.80577 6.11395 33913 ft 533 kts 45°
2026-05-05 17:17 42.85819 6.18530 33966 ft 532 kts 40°
2026-05-05 17:18 42.91479 6.25017 33969 ft 532 kts 38°
2026-05-05 17:18 42.97150 6.31509 33960 ft 532 kts 38°
2026-05-05 17:19 43.02807 6.38017 33963 ft 532 kts 39°
2026-05-05 17:19 43.08460 6.44550 33970 ft 532 kts 39°
2026-05-05 17:20 43.14118 6.51099 33933 ft 533 kts 38°
2026-05-05 17:20 43.19769 6.57663 33944 ft 533 kts 40°
2026-05-05 17:21 43.24671 6.65267 33960 ft 533 kts 55°
2026-05-05 17:22 43.31180 6.77637 33957 ft 533 kts 55°
2026-05-05 17:22 43.35418 6.85680 33928 ft 533 kts 54°
2026-05-05 17:23 43.39762 6.93936 33941 ft 533 kts 55°
2026-05-05 17:23 43.44092 7.02211 33984 ft 533 kts 55°
2026-05-05 17:24 43.48417 7.10495 33968 ft 533 kts 55°
2026-05-05 17:24 43.52740 7.18791 33953 ft 533 kts 55°
2026-05-05 17:25 43.57055 7.27101 33953 ft 533 kts 55°
2026-05-05 17:25 43.61334 7.35387 33977 ft 534 kts 56°
2026-05-05 17:26 43.65651 7.43734 33967 ft 535 kts 55°
2026-05-05 17:26 43.69972 7.52098 33967 ft 535 kts 56°
2026-05-05 17:27 43.74276 7.60488 33927 ft 535 kts 55°
2026-05-05 17:27 43.76428 7.64688 33770 ft 534 kts 55°
2026-05-05 17:27 43.78575 7.68893 32409 ft 540 kts 55°
2026-05-05 17:27 43.80825 7.73107 31096 ft 546 kts 49°
2026-05-05 17:28 43.83432 7.76861 30731 ft 535 kts 40°
2026-05-05 17:28 43.86268 7.80126 30257 ft 529 kts 35°
2026-05-05 17:28 43.89147 7.83262 29664 ft 524 kts 35°
2026-05-05 17:28 43.91950 7.86462 29125 ft 521 kts 41°
2026-05-05 17:29 43.94411 7.90114 28573 ft 516 kts 51°
2026-05-05 17:29 43.96441 7.94191 28040 ft 510 kts 61°
2026-05-05 17:29 43.98008 7.98558 27476 ft 502 kts 68°
2026-05-05 17:29 43.99423 8.02958 26978 ft 495 kts 68°
2026-05-05 17:30 44.00820 8.07285 26464 ft 489 kts 68°
2026-05-05 17:30 44.02210 8.11578 25951 ft 484 kts 68°
2026-05-05 17:30 44.03584 8.15817 25447 ft 480 kts 68°
2026-05-05 17:30 44.04945 8.20019 24955 ft 474 kts 68°
2026-05-05 17:31 44.06279 8.24195 24466 ft 470 kts 69°
2026-05-05 17:31 44.07539 8.28361 23980 ft 465 kts 70°
2026-05-05 17:31 44.08735 8.32517 23485 ft 460 kts 71°
2026-05-05 17:31 44.09875 8.36585 22994 ft 454 kts 71°
2026-05-05 17:32 44.11008 8.40651 22555 ft 448 kts 71°
2026-05-05 17:32 44.12137 8.44670 22092 ft 444 kts 71°
2026-05-05 17:32 44.13266 8.48639 21648 ft 440 kts 71°
2026-05-05 17:32 44.14397 8.52580 21185 ft 436 kts 71°
2026-05-05 17:33 44.15519 8.56490 20741 ft 433 kts 70°
2026-05-05 17:33 44.16629 8.60368 20268 ft 430 kts 70°
2026-05-05 17:33 44.17816 8.64179 19797 ft 429 kts 62°
2026-05-05 17:33 44.19544 8.67543 19316 ft 427 kts 46°
2026-05-05 17:34 44.21805 8.70197 18835 ft 423 kts 31°
2026-05-05 17:34 44.24422 8.71982 18336 ft 417 kts 16°
2026-05-05 17:34 44.27228 8.72821 17827 ft 408 kts
2026-05-05 17:34 44.30043 8.72975 17366 ft 403 kts 358°
2026-05-05 17:35 44.32835 8.73093 16886 ft 399 kts 358°
2026-05-05 17:35 44.34666 8.73173 16569 ft 396 kts 358°
2026-05-05 17:35 44.37406 8.73297 16088 ft 392 kts 358°
2026-05-05 17:35 44.40118 8.73418 15612 ft 388 kts 358°
2026-05-05 17:36 44.43673 8.73575 14974 ft 383 kts 358°
2026-05-05 17:36 44.46327 8.73690 14498 ft 380 kts 358°
2026-05-05 17:36 44.48109 8.73767 14181 ft 378 kts 358°
2026-05-05 17:36 44.50730 8.73880 13696 ft 376 kts 358°
2026-05-05 17:37 44.53338 8.73990 13184 ft 372 kts 358°
2026-05-05 17:37 44.55910 8.74102 12708 ft 368 kts 358°
2026-05-05 17:37 44.58455 8.74214 12235 ft 364 kts 359°
2026-05-05 17:37 44.60975 8.74322 11764 ft 361 kts 359°
2026-05-05 17:38 44.63456 8.74429 11547 ft 350 kts 359°
2026-05-05 17:38 44.65845 8.74534 11421 ft 338 kts 359°
2026-05-05 17:38 44.68154 8.74637 11297 ft 326 kts 359°
2026-05-05 17:38 44.70367 8.75015 11129 ft 318 kts 12°
2026-05-05 17:39 44.72489 8.75869 10661 ft 319 kts 15°
2026-05-05 17:39 44.74607 8.76741 10173 ft 315 kts 15°
2026-05-05 17:39 44.76688 8.77593 9707 ft 309 kts 15°
2026-05-05 17:39 44.78731 8.78428 9253 ft 302 kts 15°
2026-05-05 17:40 44.80707 8.79233 8838 ft 296 kts 15°
2026-05-05 17:40 44.82688 8.80039 8422 ft 290 kts 15°
2026-05-05 17:40 44.84605 8.80821 8019 ft 284 kts 15°
2026-05-05 17:40 44.86461 8.81581 7626 ft 279 kts 15°
2026-05-05 17:41 44.88307 8.82340 7237 ft 274 kts 15°
2026-05-05 17:41 44.90122 8.83089 6855 ft 270 kts 16°
2026-05-05 17:41 44.91909 8.83826 6477 ft 265 kts 16°
2026-05-05 17:41 44.93658 8.84548 6140 ft 257 kts 16°
2026-05-05 17:42 44.95347 8.85247 5746 ft 250 kts 16°
2026-05-05 17:42 44.96991 8.85925 5415 ft 243 kts 16°
2026-05-05 17:42 44.98594 8.86582 5330 ft 239 kts 16°
2026-05-05 17:42 45.00199 8.87240 5268 ft 240 kts 16°
2026-05-05 17:43 45.01799 8.87898 5163 ft 239 kts 16°
2026-05-05 17:43 45.03399 8.88537 5058 ft 239 kts 12°
2026-05-05 17:43 45.05041 8.88658 4965 ft 235 kts 351°
2026-05-05 17:43 45.06640 8.88231 4920 ft 233 kts 347°
2026-05-05 17:44 45.08233 8.87792 4869 ft 233 kts 347°
2026-05-05 17:44 45.09827 8.87361 4818 ft 233 kts 347°
2026-05-05 17:44 45.11416 8.86934 4759 ft 233 kts 347°
2026-05-05 17:44 45.13007 8.86509 4702 ft 233 kts 347°
2026-05-05 17:45 45.14595 8.86084 4668 ft 231 kts 348°
2026-05-05 17:45 45.16144 8.85667 4612 ft 229 kts 348°
2026-05-05 17:45 45.17706 8.85242 4563 ft 228 kts 348°
2026-05-05 17:45 45.19265 8.84816 4509 ft 228 kts 348°
2026-05-05 17:46 45.20819 8.84392 4458 ft 228 kts 348°
2026-05-05 17:46 45.22376 8.83967 4404 ft 228 kts 348°
2026-05-05 17:46 45.23929 8.83540 4358 ft 227 kts 348°
2026-05-05 17:46 45.25485 8.83225 4320 ft 226 kts 359°
2026-05-05 17:47 45.27050 8.83136 4274 ft 225 kts 353°
2026-05-05 17:47 45.28596 8.82798 4233 ft 225 kts 348°
2026-05-05 17:47 45.30128 8.82383 4178 ft 224 kts 348°
2026-05-05 17:47 45.31661 8.81961 4128 ft 224 kts 348°
2026-05-05 17:48 45.33190 8.81542 4071 ft 224 kts 348°
2026-05-05 17:48 45.34717 8.81125 4026 ft 223 kts 348°
2026-05-05 17:48 45.36221 8.80714 3991 ft 212 kts 348°
2026-05-05 17:48 45.37598 8.80338 3939 ft 192 kts 348°
2026-05-05 17:49 45.38855 8.79994 3872 ft 177 kts 348°
2026-05-05 17:49 45.40038 8.79670 3794 ft 171 kts 348°
2026-05-05 17:49 45.41206 8.79350 3702 ft 171 kts 348°
2026-05-05 17:49 45.42371 8.79031 3622 ft 170 kts 348°
2026-05-05 17:50 45.43534 8.78712 3510 ft 170 kts 348°
2026-05-05 17:50 45.44702 8.78392 3417 ft 171 kts 349°
2026-05-05 17:50 45.45872 8.78071 3326 ft 171 kts 349°
2026-05-05 17:50 45.47025 8.77754 3242 ft 171 kts 349°
2026-05-05 17:51 45.48188 8.77435 3158 ft 170 kts 349°
2026-05-05 17:51 45.49348 8.77116 3095 ft 170 kts 349°
2026-05-05 17:51 45.50504 8.76799 2930 ft 169 kts 350°
2026-05-05 17:51 45.51653 8.76483 2726 ft 167 kts 350°
2026-05-05 17:52 45.52792 8.76169 2512 ft 166 kts 351°
2026-05-05 17:52 45.53921 8.75859 2297 ft 165 kts 350°
2026-05-05 17:52 45.55003 8.75559 2105 ft 154 kts 351°
2026-05-05 17:52 45.56042 8.75275 1823 ft 150 kts 350°
2026-05-05 17:53 45.57058 8.74995 1635 ft 148 kts 350°
2026-05-05 17:53 45.58064 8.74717 1438 ft 146 kts 349°
2026-05-05 17:53 45.59057 8.74442 1253 ft 145 kts 349°
2026-05-05 17:53 45.60039 8.74169 1079 ft 144 kts 349°
2026-05-05 17:54 45.61017 8.73898 883 ft 143 kts 350°
2026-05-05 17:54 45.61984 8.73633 753 ft 137 kts 349°
2026-05-05 17:54 45.62780 8.73412 746 ft 92 kts 348°
2026-05-05 17:54 45.63242 8.73287 745 ft 44 kts 349°
2026-05-05 17:55 45.63502 8.73216 747 ft 31 kts 348°
2026-05-05 17:55 45.63681 8.73107 744 ft 25 kts 327°
2026-05-05 17:55 45.63795 8.72952 749 ft 20 kts 308°
2026-05-05 17:55 45.63867 8.72801 748 ft 17 kts 304°
2026-05-05 17:56 45.63927 8.72675 752 ft 14 kts 304°
2026-05-05 17:56 45.63955 8.72560 752 ft 11 kts 267°
2026-05-05 17:56 45.63943 8.72460 750 ft 9 kts 259°
2026-05-05 17:56 45.63932 8.72380 750 ft 7 kts 259°
2026-05-05 17:57 45.63922 8.72308 751 ft 6 kts 259°
2026-05-05 17:57 45.63917 8.72242 750 ft 9 kts 264°
2026-05-05 17:57 45.63911 8.72142 744 ft 11 kts 266°
2026-05-05 17:57 45.63908 8.72029 746 ft 10 kts 269°
2026-05-05 17:58 45.63902 8.71950 748 ft 5 kts 262°
2026-05-05 17:58 45.63900 8.71931 749 ft 0 kts 260°
2026-05-05 17:58 45.63897 8.71901 750 ft 4 kts 260°
2026-05-05 17:59 45.63894 8.71878 751 ft 1 kts 260°
2026-05-05 17:59 45.63892 8.71854 748 ft 9 kts 268°
2026-05-05 17:59 45.63970 8.71777 747 ft 19 kts 348°
2026-05-05 17:59 45.64099 8.71743 748 ft 19 kts 349°
2026-05-05 18:00 45.64230 8.71707 750 ft 19 kts 349°
2026-05-05 18:00 45.64353 8.71673 747 ft 17 kts 349°
2026-05-05 18:00 45.64460 8.71676 750 ft 15 kts 40°
2026-05-05 18:00 45.64487 8.71814 744 ft 15 kts 80°
2026-05-05 18:01 45.64505 8.71948 746 ft 12 kts 79°
2026-05-05 18:01 45.64507 8.72035 749 ft 6 kts 105°
2026-05-05 18:01 45.64472 8.72108 750 ft 14 kts 128°
2026-05-05 18:01 45.64423 8.72209 748 ft 11 kts 105°
2026-05-05 18:02 45.64431 8.72299 749 ft 8 kts 78°
2026-05-05 18:02 45.64442 8.72363 748 ft 5 kts 60°
2026-05-05 18:02 45.64465 8.72370 751 ft 4 kts 354°
2026-05-05 18:02 45.64502 8.72359 749 ft 4 kts 349°
2026-05-05 18:03 45.64521 8.72354 751 ft 0 kts 349°